Wind_Speed
24 26 27 27 28 29 30 30 27 23 19 16 15 12 11 11 11 12 14 15 17 18 19 19 19 19 19 19 20 19 19 18 17 17 17 17 18 18 19 19 17 15 15 16 16 14 12 10 8 7 6 5 5 5 4 4 4 4 4 5 5 5 5 5 5 5 5 6 5 4 4 5 6 6 6 7 7 7 7 7 7 7 7 7 7
25 26 26 27 28 29 30 29 25 21 17 15 13 11 10 10 10 11 13 15 17 18 18 18 18 18 18 19 19 18 18 17 17 17 17 17 17 17 18 19 19 18 16 16 16 15 14 11 9 7 6 5 5 5 5 5 5 5 5 5 5 4 4 4 4 4 4 5 5 4 4 4 5 5 5 6 6 6 6 6 7 7 7 7 7
24 24 25 27 28 29 29 28 24 20 16 13 11 10 9 9 10 11 12 14 16 17 17 17 18 18 18 18 18 18 17 16 17 17 17 16 16 16 15 17 19 19 17 15 15 15 15 13 11 8 6 5 4 4 5 5 5 5 5 5 5 5 5 4 4 3 3 3 4 3 3 4 5 5 5 5 5 5 6 6 6 6 6 7 7
24 24 26 28 28 28 28 26 22 18 14 11 10 8 9 9 9 11 12 13 15 16 17 17 17 17 17 17 17 17 16 16 16 16 16 16 15 14 13 15 18 18 17 16 14 13 14 14 13 11 8 5 4 4 4 5 5 6 6 6 6 5 5 5 4 3 2 2 3 3 3 3 5 5 4 4 4 5 5 5 5 5 5 6 7
24 25 26 28 28 27 26 24 20 17 13 10 8 8 8 9 9 10 11 13 14 15 16 17 17 17 16 16 17 16 16 16 15 15 15 15 14 13 12 13 15 17 17 16 14 12 12 13 13 13 11 7 5 4 4 4 5 6 6 6 6 6 6 5 5 4 3 3 2 4 4 3 4 5 4 3 3 4 4 4 5 5 5 6 6
24 24 25 28 28 26 24 22 18 15 11 8 7 8 9 9 10 10 11 12 13 15 16 16 16 16 15 16 16 16 16 15 15 14 14 14 14 12 11 12 13 15 15 15 14 12 11 10 11 12 12 10 7 5 4 5 5 5 6 6 6 7 7 6 5 5 4 4 3 4 4 3 3 5 4 3 2 3 3 4 4 5 5 6 7
21 22 25 28 26 24 21 19 16 13 9 7 7 8 9 9 10 10 11 11 12 14 15 16 15 15 15 15 16 16 16 15 15 15 14 14 14 13 12 12 12 13 14 15 14 12 11 9 9 10 11 11 9 7 5 6 6 6 6 6 7 7 7 7 6 6 5 5 4 4 4 3 3 4 5 3 2 2 2 3 4 5 6 6 7
19 23 26 27 24 22 19 17 15 12 8 7 7 8 9 9 10 10 10 11 12 13 14 15 15 15 15 16 16 16 16 15 15 15 15 14 13 13 13 12 11 12 13 14 14 12 11 10 8 8 9 10 9 8 6 6 7 7 7 6 6 7 7 7 7 6 6 5 5 4 4 4 3 4 5 4 3 2 2 2 3 4 5 6 7
22 25 26 25 22 20 17 15 13 10 8 7 7 8 9 10 10 10 10 10 11 12 13 14 15 15 16 16 17 17 16 15 15 15 14 14 13 13 13 13 12 11 12 13 13 12 11 10 9 8 7 8 9 9 7 7 7 7 7 7 6 6 6 6 6 6 6 6 6 5 4 4 3 4 5 5 5 4 3 3 3 4 5 6 7
25 26 25 23 20 18 15 13 12 9 7 6 7 8 9 10 10 10 10 10 10 12 13 13 14 14 16 17 17 17 16 15 14 14 14 14 13 13 13 13 12 12 12 12 12 12 11 10 9 8 7 7 8 9 8 7 7 6 7 7 7 7 7 6 6 6 6 7 7 6 5 5 4 4 6 6 6 5 4 4 4 4 5 7 8
27 27 25 21 18 16 13 12 10 8 6 7 8 9 9 9 10 10 9 9 10 11 12 12 13 15 17 18 18 17 15 15 15 14 14 14 13 13 13 13 13 13 13 12 11 11 10 10 10 9 8 7 8 8 9 8 7 7 7 7 7 7 7 7 7 6 7 7 8 8 6 6 6 6 7 7 6 6 5 5 5 5 6 7 8
28 27 24 20 17 14 12 11 9 7 6 7 8 8 9 9 9 9 8 9 9 10 11 12 13 15 18 19 18 16 14 15 15 15 14 14 13 13 13 13 12 13 14 12 10 10 9 9 10 9 9 8 8 8 8 9 8 8 7 7 7 8 8 8 8 7 7 7 8 8 7 7 8 8 8 8 7 6 5 6 6 6 6 7 8
27 25 22 18 14 12 11 10 8 7 6 7 8 8 8 9 9 8 8 8 9 10 11 12 14 16 18 18 16 14 14 15 16 15 14 14 13 13 12 12 12 12 13 11 9 9 9 9 9 9 9 9 9 8 8 9 9 9 8 8 8 8 8 8 9 9 8 8 9 9 8 8 9 9 9 9 9 7 6 6 6 6 6 7 7
24 22 18 15 12 11 10 9 8 7 7 7 7 8 8 8 8 7 7 8 8 9 11 13 15 17 17 16 15 14 13 15 16 15 14 14 13 13 12 11 11 11 11 10 9 9 8 8 9 9 9 9 9 9 9 9 9 10 9 9 9 8 8 9 9 9 9 9 9 9 9 9 9 10 10 10 10 9 8 7 7 7 7 7 7
21 19 15 12 10 10 9 9 8 8 8 7 7 8 8 8 7 7 7 7 8 9 11 14 15 15 14 14 14 13 13 15 16 16 15 14 13 13 12 11 11 11 10 9 9 9 9 8 8 9 9 9 9 9 10 10 10 11 11 10 10 10 9 9 9 9 9 10 9 9 9 10 10 10 10 10 10 10 9 8 8 7 7 7 7
19 16 12 10 10 9 9 8 9 9 8 8 8 8 8 8 7 7 7 7 8 10 12 14 14 13 12 13 13 13 14 15 16 16 15 14 13 13 12 11 11 10 10 9 9 9 9 9 9 9 9 9 8 8 9 10 10 11 12 11 11 11 10 10 9 9 9 10 10 10 10 10 10 9 10 10 10 10 10 9 9 8 8 7 7
17 14 11 10 10 9 9 8 9 9 9 9 9 8 8 8 8 7 6 7 9 11 12 13 12 10 11 12 13 14 15 15 16 16 16 15 14 14 13 12 11 10 10 9 10 10 10 10 10 9 9 9 9 8 8 9 10 11 11 12 12 12 11 10 10 9 9 10 10 10 10 10 10 10 10 10 10 9 9 9 9 9 8 7 7
14 12 10 9 10 10 9 8 8 8 9 9 9 9 8 8 7 6 7 8 10 11 12 12 11 9 10 12 14 15 15 15 16 16 16 16 15 15 14 13 12 11 10 10 10 10 10 11 10 10 10 10 9 9 9 9 9 10 11 11 12 12 12 11 11 10 10 10 10 11 11 10 11 10 10 10 10 10 10 10 9 10 9 8 7
12 10 9 9 10 9 9 8 8 9 10 10 9 9 8 8 7 7 8 9 10 11 11 11 10 9 11 13 14 15 16 16 16 16 16 17 16 16 15 14 13 12 12 11 10 10 10 10 11 10 10 10 10 10 11 10 9 10 10 11 12 12 12 12 12 11 11 11 11 11 11 11 11 11 10 10 11 11 11 10 9 9 9 8 7
10 9 9 9 9 9 8 8 8 9 10 10 9 9 9 8 8 9 9 10 10 10 11 10 10 10 12 13 14 15 16 16 16 16 16 17 18 17 16 15 14 14 14 13 11 11 11 11 11 11 11 11 11 11 12 12 11 11 10 10 11 12 13 12 12 12 12 12 12 12 12 11 11 11 11 10 11 11 11 10 9 9 9 8 7
9 8 8 8 9 9 8 8 9 9 9 10 10 10 10 9 9 9 10 10 9 10 10 10 10 11 12 13 14 15 16 16 17 17 17 17 18 18 17 16 16 16 15 15 14 13 12 12 12 12 12 11 10 11 12 13 13 13 12 11 11 12 13 13 12 13 13 13 13 13 13 12 12 12 11 11 11 11 11 10 10 9 8 8 7
9 7 6 7 8 8 8 9 9 9 10 10 10 10 10 9 9 9 10 10 9 9 10 10 11 12 12 13 14 15 16 16 17 18 18 19 19 19 19 18 18 17 17 16 16 15 14 14 13 13 13 12 10 10 12 13 14 14 14 13 12 12 14 14 13 13 14 14 14 14 13 13 13 12 12 12 11 11 11 11 10 9 9 8 7
9 7 6 6 8 9 9 10 10 10 11 11 11 10 10 9 9 10 10 10 10 10 10 11 11 12 13 14 14 15 16 16 17 19 20 20 20 20 20 19 19 18 17 17 17 16 16 16 14 14 14 13 11 11 11 13 14 15 16 15 14 13 15 15 14 14 15 15 14 14 14 14 13 13 12 12 12 12 11 11 10 10 9 8 8
10 8 7 6 7 9 10 11 11 11 11 12 12 11 11 11 11 11 11 11 11 11 12 12 13 13 13 14 15 15 16 17 17 19 20 21 21 21 21 20 20 19 18 18 17 17 17 17 16 15 14 14 13 12 12 13 14 16 17 17 16 14 15 16 15 16 16 15 15 15 15 14 14 14 13 13 13 12 11 11 11 10 10 9 8
9 8 7 6 7 8 10 12 12 12 13 13 13 13 13 12 12 12 12 13 13 13 12 13 13 13 14 14 14 16 17 18 19 19 20 20 21 22 22 22 21 20 19 19 18 17 17 17 17 16 15 15 14 13 13 13 14 16 17 17 17 16 15 16 17 17 17 17 16 16 16 15 15 15 14 13 13 13 12 12 12 11 10 10 9
9 8 8 7 6 8 10 12 13 13 13 14 14 14 14 14 13 14 14 14 14 14 13 13 13 13 13 14 15 16 18 19 20 20 20 20 21 22 22 22 21 21 20 19 18 17 17 18 18 17 17 16 16 15 14 14 14 15 17 17 17 17 16 17 18 18 18 19 18 17 16 16 16 15 15 14 14 13 12 12 12 12 11 10 9
8 8 8 7 7 8 10 12 13 14 15 15 15 15 15 15 15 15 15 15 15 14 13 13 13 13 13 14 16 17 19 20 21 21 21 20 20 21 21 21 21 21 20 19 19 18 18 18 19 18 18 18 18 17 15 15 15 15 17 18 17 18 17 17 18 18 18 20 19 18 17 17 16 16 16 15 14 13 13 12 12 12 12 11 10
8 8 9 9 9 9 11 13 14 15 16 16 16 16 16 16 16 16 16 16 16 14 14 14 14 14 14 15 16 18 20 21 22 22 21 20 20 20 21 21 21 20 20 20 19 19 19 19 19 18 18 19 19 18 16 16 15 15 16 18 18 18 18 18 19 18 18 20 20 19 18 18 17 17 17 16 14 13 13 12 12 12 12 12 11
9 9 10 10 10 11 12 13 15 16 16 17 16 16 16 17 17 17 17 17 16 15 14 14 14 14 14 16 17 19 21 21 22 22 21 21 21 21 20 20 21 20 20 20 20 20 20 20 20 19 18 20 21 20 18 16 16 15 15 17 18 18 17 17 19 20 18 19 20 20 20 19 18 18 18 17 15 14 13 12 12 12 12 12 12
10 10 10 11 11 11 12 13 15 16 17 17 17 17 17 18 18 18 17 17 16 15 14 15 15 15 15 17 19 20 21 21 22 22 22 22 22 21 21 21 21 20 20 21 21 21 21 21 20 20 19 20 21 21 20 18 17 16 15 15 17 16 16 17 19 21 21 20 20 21 20 20 18 18 18 17 16 15 13 13 11 11 12 12 12
11 11 10 11 11 11 12 14 15 16 17 17 18 18 19 19 18 18 18 17 16 15 15 15 15 15 16 18 20 20 21 21 21 22 22 22 22 22 21 21 21 20 21 21 21 21 21 20 20 21 21 21 22 23 22 21 19 17 16 15 16 16 17 18 20 22 23 22 21 21 20 19 19 18 19 18 17 16 15 13 12 11 11 12 12
11 10 9 10 11 11 12 13 15 16 17 18 19 20 20 19 18 18 18 17 16 15 15 15 15 16 17 19 20 20 20 20 20 21 21 22 23 23 22 22 22 21 21 21 21 21 20 19 19 20 21 22 23 24 24 24 22 20 18 16 15 17 18 18 20 22 24 23 22 22 20 19 19 19 19 19 17 16 15 14 13 11 11 12 12
11 10 10 9 10 11 12 13 15 17 18 19 20 20 19 18 18 18 17 16 16 16 15 15 15 16 18 19 20 20 20 20 20 20 20 22 23 23 23 24 23 23 22 22 21 21 21 19 18 19 20 21 24 25 25 26 25 22 20 18 16 17 19 19 19 20 22 23 22 22 21 19 19 20 20 19 18 17 16 15 14 13 11 12 12
12 12 11 10 10 11 12 14 15 17 19 20 20 19 19 18 18 17 16 16 16 16 15 15 16 17 19 20 20 20 21 20 20 20 20 21 22 22 23 24 24 24 24 22 21 20 20 20 20 20 20 21 23 25 25 26 25 23 22 21 19 18 20 21 21 21 20 20 21 21 22 21 20 21 20 19 18 17 17 16 15 14 13 12 12
13 13 13 12 13 13 13 15 16 17 18 18 19 19 18 17 16 16 16 16 15 15 15 16 17 18 19 20 20 20 21 20 20 20 20 20 21 21 22 22 22 23 23 23 22 21 21 22 23 22 22 21 21 23 25 25 26 24 22 22 22 20 20 21 22 23 21 20 21 22 22 22 22 22 21 19 19 18 17 17 16 15 14 12 13
13 13 14 15 15 15 15 16 17 17 17 17 18 17 17 16 16 16 16 15 15 15 16 16 17 19 20 20 20 20 20 20 20 20 20 20 20 20 20 20 20 22 23 23 24 24 24 24 25 25 25 24 22 22 23 25 25 25 23 22 23 22 22 22 22 23 23 22 24 24 23 23 24 23 21 19 19 18 18 17 17 16 15 14 13
13 14 15 16 16 16 17 17 17 18 17 16 16 16 16 16 16 15 15 15 16 16 16 16 18 19 20 21 21 21 20 19 19 20 20 20 20 19 19 19 21 22 24 24 25 26 27 27 27 27 27 27 25 23 23 24 25 25 26 25 24 24 25 25 24 24 24 23 25 26 25 24 25 24 21 20 19 18 18 18 18 17 16 15 15
13 14 15 16 15 15 17 18 18 19 17 16 15 15 16 16 15 15 15 15 15 16 16 17 18 19 20 21 22 21 20 19 19 20 20 19 19 19 19 19 21 22 24 25 25 26 27 28 29 29 29 29 28 26 25 25 25 25 27 27 27 27 26 26 26 26 26 25 24 26 26 25 26 26 23 21 20 19 18 18 18 18 17 17 16
13 14 16 16 15 13 14 16 19 20 19 17 15 15 15 15 15 15 15 15 15 16 17 18 19 20 21 22 22 21 19 19 19 20 20 19 19 19 20 20 20 22 23 24 25 25 26 27 28 30 31 31 31 30 28 28 27 26 27 29 29 29 28 27 27 27 27 27 25 23 26 26 26 28 27 24 22 20 19 19 19 19 19 18 18
14 15 15 15 14 13 12 14 17 20 19 16 15 15 15 15 15 15 15 15 16 16 17 18 20 20 21 22 21 20 19 19 19 19 19 20 20 20 20 20 21 22 23 24 25 26 28 28 28 29 31 32 33 33 32 32 30 28 28 29 30 31 31 28 28 29 28 28 26 23 24 27 28 29 31 29 26 24 21 20 20 20 20 19 19
13 14 15 15 13 12 12 12 14 16 17 16 14 15 15 15 15 15 15 15 16 16 17 19 20 21 21 21 21 20 19 19 19 19 20 20 21 21 21 22 22 23 24 25 27 28 29 30 30 30 31 32 33 35 35 35 34 32 31 30 30 31 32 30 28 28 29 28 27 26 24 26 28 30 32 31 30 28 24 21 21 21 20 20 20
13 14 14 13 12 12 12 12 12 15 17 15 15 15 15 15 15 15 15 15 15 16 18 20 21 22 21 20 20 19 19 18 19 20 20 21 21 22 22 23 23 24 25 26 28 29 30 31 32 33 33 33 33 34 36 36 36 35 34 32 30 30 31 30 28 28 30 29 28 27 26 27 30 33 33 31 30 30 27 23 23 22 21 20 20
12 13 12 11 11 12 14 12 13 16 16 15 15 15 15 14 15 15 15 15 15 16 18 20 21 22 21 20 19 19 19 19 19 20 21 21 21 22 23 24 25 25 26 27 29 30 32 33 35 36 36 36 36 35 36 37 37 36 36 34 32 31 30 30 30 31 30 28 28 28 28 28 30 34 34 31 30 31 30 26 24 23 23 21 20
12 12 11 11 10 12 12 12 14 15 15 15 15 14 14 15 15 15 15 15 15 16 18 20 21 21 21 19 18 18 19 19 20 20 21 21 21 23 24 25 26 27 28 29 30 32 34 35 37 38 39 40 40 39 38 38 38 38 37 35 33 31 29 30 32 32 30 29 28 28 29 29 31 33 34 33 33 33 32 30 26 24 24 23 22
12 12 11 10 9 9 9 11 14 15 16 16 15 15 15 15 14 14 15 15 16 17 19 20 20 21 20 18 17 18 19 19 20 20 21 21 22 23 24 26 27 29 30 31 32 33 35 37 39 40 42 43 43 42 40 39 39 39 37 36 34 31 30 31 31 31 32 31 30 28 29 30 31 32 33 34 35 35 33 32 29 26 25 24 23
13 12 11 9 7 6 8 12 16 17 17 17 16 15 15 14 14 15 15 16 17 18 19 20 20 20 19 19 18 18 19 19 20 20 21 21 23 24 25 27 28 30 31 32 33 34 36 38 40 43 44 45 45 44 42 40 40 39 38 36 35 33 31 31 31 30 31 33 31 28 28 29 31 33 33 34 36 36 35 34 31 28 26 24 24
13 13 11 10 7 6 7 12 16 18 19 18 16 15 14 14 15 15 16 17 19 20 20 21 20 19 19 19 19 19 19 19 20 20 21 22 23 24 26 27 29 30 32 33 34 35 37 39 42 44 45 44 44 44 41 39 39 39 38 37 36 33 31 31 32 31 31 32 32 29 27 27 29 33 34 34 36 37 36 35 33 30 27 25 25
14 13 12 11 9 8 9 12 15 18 18 16 15 14 14 15 16 16 17 18 20 21 21 21 20 19 18 19 19 19 19 20 20 20 21 21 23 24 26 27 29 30 32 33 34 36 38 40 43 44 43 41 40 41 39 37 37 37 37 37 36 33 31 31 32 31 31 32 32 30 28 26 27 30 34 35 35 37 37 35 33 32 29 27 27
14 14 13 12 11 11 11 13 16 17 16 15 15 15 16 17 17 17 18 19 20 22 22 22 21 19 18 18 18 19 20 20 20 20 21 21 23 24 26 27 29 30 32 33 35 36 38 41 43 42 40 38 37 37 37 35 35 35 35 36 35 33 31 31 32 32 31 31 31 30 28 27 27 28 32 36 36 37 38 35 34 34 32 29 28
15 15 15 14 13 13 13 14 16 16 15 15 15 16 17 18 18 18 18 19 21 22 22 22 21 20 18 18 18 19 20 20 20 20 20 22 23 24 26 27 28 30 32 34 35 37 39 41 42 40 37 36 36 36 35 34 34 34 34 35 34 31 31 31 32 32 32 31 31 30 28 28 28 27 28 35 37 38 39 37 36 35 34 31 30
16 16 15 14 14 13 13 15 16 16 15 14 15 17 18 19 19 18 19 20 21 22 23 23 22 20 18 18 19 19 20 20 20 20 21 22 23 24 26 27 29 30 32 34 36 37 39 41 42 39 35 35 36 36 33 32 31 31 31 32 32 30 30 30 30 31 31 31 30 29 28 28 29 27 26 31 37 40 40 38 36 35 34 33 31
Wind_Direction
312 313 317 320 324 326 327 327 327 330 336 342 345 345 347 349 350 350 353 357 2 6 7 6 4 6 10 16 19 19 20 19 17 17 16 14 14 17 19 20 23 25 23 22 20 17 17 19 19 20 21 15 5 1 2 5 7 10 12 10 6 4 1 360 2 1 10 9 8 29 22 6 355 3 37 46 43 35 29 25 16 4 2 6 7
309 310 313 317 322 324 326 326 325 327 333 340 343 342 344 346 344 347 352 358 2 6 6 5 5 6 11 17 20 22 23 20 17 16 15 15 14 16 18 19 20 21 21 19 17 14 11 10 11 15 20 14 3 355 351 352 353 355 357 358 354 353 351 349 353 352 2 6 360 13 20 6 350 354 29 42 40 36 30 27 20 6 0 2 2
307 308 311 316 320 322 324 324 323 324 330 338 340 337 338 338 339 346 353 358 2 5 5 4 4 7 12 17 20 23 24 22 18 15 14 14 14 15 16 14 15 17 17 16 13 10 6 3 2 6 13 15 4 352 344 343 340 341 344 345 344 342 335 333 336 337 350 354 343 346 13 8 336 344 21 34 36 34 27 27 20 5 360 358 355
306 307 310 315 318 319 322 322 320 320 326 334 335 331 329 330 337 347 353 358 2 3 4 3 5 8 12 16 18 21 23 22 19 14 10 11 12 13 11 8 9 12 13 13 11 7 3 359 357 356 359 3 359 347 335 332 331 331 333 334 334 331 323 319 313 306 311 318 326 327 353 2 323 334 10 25 32 30 24 23 15 2 358 353 348
304 304 307 312 315 318 320 319 317 316 323 329 326 320 319 328 338 346 351 356 1 2 2 3 6 9 11 14 15 19 21 19 16 13 8 5 6 8 5 2 4 8 10 10 10 6 1 358 354 352 351 350 345 335 322 315 315 318 322 324 324 323 317 311 302 292 288 294 318 321 332 348 317 323 351 6 27 27 19 17 9 355 352 349 343
300 301 306 310 314 317 319 316 314 313 317 319 312 310 317 330 337 342 347 355 359 360 1 4 8 10 10 11 13 16 19 16 13 10 6 1 358 359 359 356 358 3 6 7 7 5 1 356 352 349 347 345 339 327 311 304 302 306 311 317 318 320 318 312 303 292 291 296 309 309 311 328 315 318 331 342 9 18 13 11 1 347 344 342 337
298 302 306 309 314 317 316 314 312 308 307 304 301 308 320 329 333 338 344 351 356 358 2 5 9 10 9 9 12 14 15 13 9 7 3 357 352 351 351 350 353 358 2 3 3 2 360 354 347 344 344 342 339 329 311 301 299 299 303 310 316 321 322 318 308 297 294 295 296 296 301 312 312 311 318 324 339 352 358 360 352 342 338 336 332
300 304 307 311 314 315 313 311 307 300 296 293 301 312 321 325 328 334 340 347 353 358 2 6 9 9 9 9 9 9 10 9 6 5 360 354 349 346 346 347 349 352 356 359 359 357 356 352 344 338 336 337 337 332 318 303 297 296 299 304 313 321 324 321 311 299 292 290 288 289 298 303 302 303 309 315 318 319 331 340 342 335 330 330 326
303 304 307 310 312 313 310 306 300 293 290 294 306 315 318 321 325 329 335 343 352 358 2 6 9 9 8 5 4 2 3 4 3 2 358 353 348 345 345 346 346 348 353 356 356 354 352 349 343 333 327 326 328 330 326 312 299 295 297 301 306 311 315 317 312 305 296 291 285 283 288 295 299 297 300 308 311 308 312 321 328 327 326 324 320
300 301 305 307 308 309 305 299 295 290 291 299 308 313 316 318 321 325 331 341 352 357 1 5 8 6 2 358 355 355 357 359 1 1 358 354 350 346 344 343 343 344 350 354 354 353 349 346 342 334 324 317 317 320 323 319 307 297 295 295 297 300 306 310 313 308 299 291 283 276 276 290 302 298 293 299 305 306 309 313 319 322 323 321 316
294 296 299 302 303 303 298 295 292 288 292 300 307 311 312 314 317 321 329 340 350 356 359 3 3 359 354 351 349 348 352 356 359 360 358 354 350 346 343 342 343 342 346 351 353 354 350 343 340 335 327 317 311 312 315 316 311 303 295 290 290 293 298 302 304 300 293 288 283 276 273 288 298 295 289 290 295 301 306 309 312 316 319 318 315
290 292 294 296 298 298 293 291 287 286 291 297 303 307 308 310 312 317 327 339 348 352 355 357 355 352 348 346 345 344 347 353 356 357 355 352 348 344 342 341 343 342 343 347 352 353 349 342 338 334 328 320 313 308 308 309 309 306 299 291 287 286 289 293 296 296 292 289 285 281 278 285 291 291 286 283 285 290 297 300 303 306 310 314 313
289 290 290 291 293 292 288 285 282 280 283 292 298 300 301 303 306 313 325 336 344 348 350 350 348 346 344 342 341 341 343 349 353 352 351 349 346 343 340 340 341 342 342 347 350 349 347 341 337 333 326 319 313 306 302 302 304 305 301 295 289 285 286 289 292 294 292 289 286 283 281 282 285 286 282 279 280 283 287 289 293 298 303 309 312
287 286 285 285 285 284 283 280 276 271 275 284 290 291 292 295 300 308 322 333 339 344 346 345 342 340 340 340 339 339 340 344 348 348 347 345 343 341 339 339 340 341 342 345 346 345 342 337 334 331 324 314 307 302 298 298 299 299 297 297 293 287 283 284 286 288 288 288 285 282 281 281 282 282 281 279 278 278 279 281 286 292 297 304 309
283 281 279 278 277 276 276 275 271 265 268 275 278 280 283 288 293 303 318 329 335 340 341 339 336 335 337 338 338 338 338 340 343 344 343 341 340 339 337 336 338 340 338 336 335 335 333 330 327 325 321 311 303 298 295 293 293 291 291 294 292 284 278 276 277 280 283 285 284 283 283 282 280 280 280 279 278 276 274 274 277 280 286 295 305
281 279 275 272 270 269 270 269 265 263 265 267 269 272 277 282 288 300 315 326 331 335 336 334 331 330 333 336 337 338 338 338 339 339 339 338 336 335 333 330 332 335 334 327 323 323 323 322 317 314 314 309 301 295 291 288 285 282 284 286 284 279 273 269 268 272 277 281 282 283 284 282 276 274 277 279 279 278 274 272 272 272 275 283 296
276 274 270 268 265 265 267 266 262 262 266 266 268 270 274 279 286 299 313 322 326 330 330 327 323 322 327 333 336 336 336 335 336 335 335 334 333 331 328 324 324 329 329 325 320 315 314 315 312 305 303 303 299 293 288 283 278 275 275 276 275 274 270 264 262 263 267 272 276 279 280 277 272 269 271 275 278 277 275 274 274 275 275 280 289
269 267 267 267 264 263 263 264 266 267 268 270 272 274 276 280 288 299 310 317 320 323 321 317 312 310 318 329 332 332 331 331 332 331 330 330 329 329 326 322 320 322 324 321 318 314 309 310 312 304 295 295 296 293 288 282 274 271 270 270 270 271 269 263 257 255 258 262 266 270 272 271 269 268 269 271 273 273 274 275 277 279 280 281 288
263 263 265 264 262 262 263 266 270 271 272 273 275 277 279 283 290 298 306 310 312 313 311 306 301 301 311 323 326 325 326 327 328 327 326 324 325 327 326 322 320 320 319 317 314 312 308 305 309 308 296 289 292 292 289 287 282 276 270 268 269 270 270 266 259 255 253 255 258 260 263 264 265 266 269 270 270 270 272 275 278 280 282 282 285
260 262 263 262 264 264 264 267 270 271 272 274 276 277 279 283 289 294 299 301 302 304 304 299 293 295 305 316 319 319 321 322 324 323 322 321 322 323 324 322 319 319 318 316 313 310 306 301 303 307 302 291 288 290 289 290 290 286 276 265 264 266 266 266 264 260 255 254 254 255 256 257 259 262 267 270 270 270 271 275 277 280 283 283 283
254 257 259 261 266 265 262 265 268 271 273 274 274 275 276 279 284 288 289 289 292 296 299 293 286 290 301 311 314 315 316 318 320 320 319 319 319 320 322 319 316 317 318 317 316 312 306 300 297 300 302 294 287 287 287 287 288 289 285 273 261 259 260 262 263 263 260 256 254 254 254 254 255 257 262 267 270 271 272 275 278 280 282 283 282
245 247 253 262 266 264 261 261 265 268 270 270 270 270 271 273 277 279 279 280 284 288 290 287 284 290 300 307 309 311 313 316 318 318 318 318 318 318 319 318 316 316 317 318 317 314 309 302 295 294 297 295 287 284 284 284 285 286 286 281 269 258 256 257 260 262 261 258 257 255 254 253 254 254 257 263 267 269 271 275 278 279 280 281 281
239 239 243 258 266 264 260 258 261 263 264 264 265 265 265 267 269 270 271 273 277 280 283 284 286 293 300 304 307 310 313 316 319 318 317 316 317 317 317 317 317 317 317 319 317 313 311 306 299 292 292 291 285 280 279 279 280 282 283 283 278 266 258 256 257 261 262 260 259 259 258 256 256 256 257 260 264 266 269 273 276 276 276 277 278
241 236 235 248 262 265 262 259 258 259 261 261 262 261 260 261 262 263 265 266 270 276 280 283 287 293 299 302 306 312 315 317 318 317 315 314 315 316 316 316 317 316 315 317 317 313 311 309 304 296 290 286 283 279 276 274 275 279 281 282 281 275 265 258 255 258 261 262 261 261 261 259 258 258 259 260 263 265 267 270 273 274 273 272 273
246 239 234 241 258 267 268 263 260 259 260 261 261 259 257 258 259 260 262 263 267 273 279 283 287 292 297 302 308 314 317 317 316 315 313 312 313 315 315 315 315 314 313 313 315 313 311 311 308 303 295 288 284 280 276 273 273 276 279 281 280 278 273 266 257 255 258 261 261 260 259 259 258 257 258 259 262 264 266 268 271 274 273 271 270
248 247 242 242 256 270 271 268 265 263 262 262 261 258 255 256 257 259 261 263 266 270 277 282 285 290 298 305 310 314 316 315 314 313 311 311 311 313 313 312 311 310 309 310 311 311 309 310 310 308 303 296 290 286 280 275 273 274 277 280 282 281 279 274 266 257 256 258 259 260 259 259 259 258 259 259 259 262 264 266 269 273 273 270 268
250 252 252 252 260 269 271 270 267 264 263 262 260 257 255 255 256 258 262 265 268 273 279 282 285 292 299 306 311 314 314 312 312 311 310 310 309 311 310 309 306 306 306 306 307 306 305 307 310 310 308 304 299 295 289 280 275 274 273 272 276 280 279 278 274 265 259 257 258 259 259 260 260 259 259 258 257 258 261 261 264 270 273 271 267
256 258 259 260 262 265 267 266 265 264 263 262 259 257 256 257 259 261 264 267 272 277 280 283 288 294 300 306 311 312 311 310 310 309 309 309 310 311 310 309 307 307 307 305 303 302 301 303 306 309 310 308 305 303 300 291 282 278 276 271 268 271 275 278 279 276 266 259 257 258 259 258 258 258 257 256 254 253 258 260 260 266 271 272 268
256 257 258 258 259 261 262 262 263 263 263 262 260 257 258 260 261 263 265 269 273 277 280 284 289 295 300 305 308 309 310 309 309 309 310 310 311 312 313 312 312 312 311 308 305 303 301 302 304 306 307 306 305 305 305 300 292 287 285 280 271 268 272 277 282 283 276 263 255 256 257 256 255 256 257 257 256 252 252 257 259 262 267 270 269
254 255 256 256 256 256 258 258 260 261 262 262 260 258 258 259 261 263 266 268 271 274 279 283 288 293 298 302 306 308 309 309 310 311 311 311 312 313 313 314 316 316 314 311 308 306 306 307 305 303 302 301 300 300 300 300 298 295 292 286 279 273 269 270 277 281 278 267 255 253 256 257 256 257 258 259 259 256 252 253 256 259 264 269 269
251 253 256 255 252 250 253 255 257 258 259 260 259 257 257 258 260 262 264 265 268 272 276 280 285 290 296 301 305 307 308 309 310 311 311 311 312 312 313 314 316 316 314 312 309 308 309 310 305 301 299 298 296 295 295 294 293 293 293 288 280 276 271 267 268 272 274 268 256 250 254 258 259 259 259 257 257 258 257 254 253 254 259 265 268
246 251 254 255 251 246 247 251 252 254 255 256 255 255 255 256 258 260 263 264 267 270 273 277 282 287 294 300 304 305 306 308 310 310 310 310 311 312 313 315 316 317 316 315 313 312 312 310 305 299 298 297 294 292 291 290 288 287 287 285 278 276 275 273 271 270 270 267 258 251 252 257 259 259 258 257 255 255 255 253 250 248 252 260 264
241 245 248 251 252 248 246 248 250 251 251 252 253 254 255 256 258 261 264 265 267 269 272 276 280 287 294 300 303 304 306 308 310 310 309 309 311 313 315 317 318 319 319 318 318 319 317 313 308 302 298 295 293 290 289 289 290 288 284 282 277 273 274 278 280 278 272 266 260 253 252 254 258 259 258 257 255 253 253 252 251 247 247 254 261
241 245 247 249 252 251 249 249 251 251 252 252 254 255 256 257 260 263 263 264 266 270 273 277 282 288 295 300 303 304 307 309 309 308 308 308 309 312 314 316 318 318 318 317 318 320 321 317 313 310 304 300 296 291 288 287 289 289 284 280 278 273 273 275 279 282 278 268 261 256 253 253 256 258 258 257 257 254 251 250 250 249 247 249 257
244 249 252 254 255 254 251 250 252 253 254 255 255 256 257 259 261 261 261 263 266 270 273 278 284 290 295 299 301 303 306 307 307 306 306 306 307 309 311 312 315 316 316 316 316 318 319 317 315 313 311 308 304 296 291 287 286 287 285 282 280 276 273 274 274 275 275 268 262 258 255 252 252 255 256 256 257 255 251 249 248 249 250 248 252
248 254 258 261 263 263 259 254 253 253 253 253 254 256 258 259 258 257 259 262 265 268 273 279 285 290 294 297 299 302 303 304 304 303 303 304 304 306 308 309 311 313 314 314 314 315 315 314 312 311 310 309 307 301 296 290 286 286 286 283 281 277 274 274 274 272 270 265 259 258 258 253 250 252 252 252 255 256 254 250 248 248 249 249 249
253 258 262 266 270 275 274 264 253 250 249 250 252 255 256 254 253 255 257 260 263 268 275 281 286 290 294 296 298 299 301 301 302 302 302 302 303 305 306 306 306 308 309 310 310 311 311 310 309 308 307 306 305 302 297 293 290 286 284 281 280 279 276 275 273 272 271 267 259 256 258 255 249 249 249 249 252 256 256 253 251 250 249 247 246
254 256 260 264 271 280 281 270 253 246 245 245 247 249 249 249 251 253 255 259 263 269 276 281 286 290 294 295 296 297 299 301 302 302 302 303 304 305 305 304 304 304 306 308 308 308 308 307 307 307 306 304 303 300 295 291 288 286 282 280 278 276 275 276 274 273 272 271 264 255 255 255 250 248 248 250 252 254 257 256 252 251 250 248 245
251 252 256 262 268 276 282 273 255 247 245 241 241 243 245 247 249 251 254 258 263 270 277 282 286 290 292 293 294 296 300 302 304 304 304 305 306 307 307 307 307 307 307 308 308 306 306 305 304 305 305 304 302 299 294 290 287 285 283 281 277 273 272 273 274 273 270 270 270 261 257 256 251 248 247 250 254 255 256 257 254 252 251 250 246
247 249 255 261 265 270 277 273 255 244 241 238 238 241 243 245 248 251 255 259 266 273 280 284 287 289 291 293 295 298 302 304 305 305 305 307 308 309 310 311 311 311 311 310 309 308 306 305 304 303 303 302 301 299 295 291 288 285 282 281 279 276 272 269 269 271 271 269 270 268 261 255 252 250 247 247 252 255 255 256 255 252 250 250 248
245 249 255 261 266 270 269 265 251 239 236 236 237 240 242 244 247 252 257 264 271 278 283 285 287 289 292 294 297 300 304 305 306 306 307 308 310 312 314 315 315 314 313 312 311 310 308 307 306 305 303 301 300 299 296 293 291 287 283 281 280 278 274 269 266 267 269 267 265 265 261 254 251 251 248 246 249 251 251 253 254 253 251 249 249
244 248 255 262 270 274 266 253 240 234 234 234 235 237 240 244 249 255 261 268 275 280 284 287 288 291 293 295 298 302 305 306 307 307 309 311 313 315 317 317 317 316 314 313 311 309 308 308 307 307 305 304 301 298 296 293 291 288 284 282 280 278 275 271 267 264 264 265 265 264 262 255 249 249 250 247 247 247 246 249 253 253 252 249 247
242 248 256 264 270 271 262 243 229 229 230 229 232 237 241 246 252 258 265 271 276 281 284 287 289 292 293 296 299 303 306 308 308 308 310 312 315 317 317 318 318 318 316 314 312 311 310 310 309 308 307 305 303 299 296 293 290 287 284 282 279 277 276 272 266 262 262 265 266 264 262 257 250 249 250 248 246 244 243 245 251 254 252 249 246
240 247 257 265 269 268 257 235 224 223 222 226 232 236 242 248 255 263 269 275 278 282 284 287 290 292 294 297 300 304 306 308 308 309 312 314 316 317 318 319 319 319 318 316 314 313 312 311 310 308 306 304 302 298 294 292 289 287 283 281 278 276 275 271 265 262 262 263 264 264 262 258 253 251 250 248 244 242 243 244 247 252 252 250 247
239 247 258 266 268 268 251 228 223 225 227 232 234 237 244 252 261 269 274 278 280 283 285 288 291 293 295 297 300 304 306 308 309 311 314 315 316 318 319 320 320 320 319 317 316 315 314 312 310 308 306 304 301 297 293 289 287 284 282 280 278 276 272 269 267 264 261 261 263 266 266 262 259 255 249 246 244 241 242 242 243 247 251 251 249
238 244 252 254 250 254 244 228 225 232 241 244 240 240 247 256 265 272 276 279 282 284 287 289 290 292 294 296 300 304 307 309 311 312 314 315 316 318 319 320 320 320 320 320 318 317 315 314 312 310 309 306 302 298 293 288 284 281 280 278 276 274 270 267 268 265 261 261 263 265 267 267 264 258 249 244 244 241 240 241 240 243 249 251 249
234 239 243 240 233 238 243 236 233 237 243 244 241 243 251 261 268 273 277 280 283 285 287 289 290 292 294 298 302 306 308 310 311 313 313 314 315 317 318 319 319 321 322 322 321 319 317 316 314 313 311 308 304 301 296 289 283 278 276 275 273 271 268 266 268 268 263 260 262 264 265 268 268 260 249 243 242 241 239 238 237 239 245 248 248
233 235 237 235 230 233 241 240 236 237 241 241 240 246 258 266 270 272 276 280 283 286 288 290 293 295 297 300 304 307 310 311 311 312 312 312 314 315 316 318 320 322 323 323 322 320 319 318 317 316 313 310 307 303 299 292 284 276 269 268 269 269 266 265 266 266 264 258 258 262 262 266 272 264 250 241 241 241 239 236 235 237 241 244 247
235 236 237 239 235 233 238 240 237 237 242 241 241 252 264 268 269 272 277 281 285 289 292 295 297 298 300 302 305 308 309 310 310 311 310 311 312 313 315 318 321 323 324 324 323 322 322 322 321 319 316 313 311 306 300 294 287 277 267 261 262 264 262 261 262 263 263 260 258 260 261 265 274 270 252 241 240 240 237 233 233 237 239 241 244
240 239 240 244 242 236 234 236 236 237 240 241 247 260 268 269 270 275 280 285 289 294 298 300 300 300 301 303 305 306 306 307 308 309 309 309 310 312 315 319 321 321 323 324 325 325 326 326 326 324 319 316 315 311 303 296 288 280 269 258 254 256 256 257 259 260 261 260 259 260 260 263 271 274 258 241 238 238 234 231 232 236 238 240 243
247 245 243 244 243 239 234 232 237 243 248 252 260 268 271 272 275 280 286 291 295 298 300 300 299 300 301 302 302 301 301 303 306 308 308 308 310 312 315 318 319 320 323 325 326 327 328 330 330 326 321 318 318 314 307 300 293 283 271 257 250 251 253 255 257 258 258 259 259 258 259 260 264 275 270 249 240 237 233 231 233 237 239 239 242
Height
5876 5876 5874 5874 5873 5873 5873 5872 5871 5870 5869 5869 5869 5868 5868 5868 5868 5868 5868 5868 5867 5866 5865 5864 5864 5863 5862 5861 5860 5859 5859 5858 5858 5857 5856 5856 5855 5854 5853 5852 5851 5850 5849 5848 5848 5847 5846 5846 5845 5845 5845 5845 5845 5844 5844 5843 5843 5843 5842 5842 5841 5841 5840 5840 5840 5840 5840 5839 5839 5839 5839 5838 5838 5838 5836 5834 5834 5834 5834 5834 5834 5834 5833 5833 5833
5875 5874 5874 5873 5873 5872 5872 5871 5870 5870 5869 5868 5868 5868 5868 5868 5868 5868 5868 5867 5867 5866 5865 5864 5864 5863 5862 5862 5861 5860 5859 5858 5858 5857 5857 5856 5855 5854 5854 5853 5852 5851 5850 5849 5848 5848 5847 5846 5846 5845 5845 5845 5845 5844 5844 5844 5843 5843 5842 5842 5842 5841 5840 5840 5840 5839 5839 5839 5839 5839 5838 5838 5838 5838 5836 5834 5834 5834 5834 5834 5834 5834 5833 5833 5833
5874 5874 5873 5872 5872 5872 5871 5870 5870 5869 5868 5868 5868 5868 5867 5867 5867 5867 5867 5867 5866 5866 5865 5864 5864 5863 5863 5862 5861 5860 5859 5859 5858 5857 5857 5856 5855 5855 5854 5853 5852 5851 5850 5850 5849 5848 5848 5847 5846 5845 5845 5845 5845 5844 5844 5844 5843 5843 5843 5842 5842 5841 5841 5840 5840 5839 5839 5839 5839 5839 5838 5838 5838 5837 5835 5834 5834 5834 5834 5833 5833 5833 5833 5833 5833
5874 5873 5872 5872 5871 5871 5871 5870 5869 5868 5868 5867 5867 5867 5867 5867 5867 5867 5867 5867 5866 5866 5865 5864 5864 5864 5863 5862 5861 5860 5860 5859 5858 5857 5856 5856 5855 5855 5854 5853 5852 5851 5850 5850 5849 5849 5848 5847 5846 5846 5845 5845 5845 5844 5844 5843 5843 5843 5842 5842 5842 5842 5841 5841 5840 5840 5839 5839 5838 5838 5837 5837 5837 5837 5835 5834 5834 5834 5834 5833 5833 5833 5833 5833 5833
5873 5872 5871 5871 5871 5871 5870 5869 5868 5868 5867 5867 5866 5866 5866 5866 5867 5867 5866 5866 5866 5865 5865 5864 5864 5864 5863 5862 5862 5861 5860 5859 5858 5857 5856 5856 5855 5855 5854 5853 5853 5852 5851 5850 5849 5848 5848 5847 5847 5846 5845 5845 5845 5844 5844 5843 5843 5843 5842 5842 5842 5842 5841 5841 5840 5840 5839 5839 5838 5838 5837 5836 5836 5836 5835 5834 5834 5833 5834 5833 5833 5833 5833 5833 5832
5871 5871 5871 5870 5870 5870 5869 5868 5868 5867 5866 5866 5865 5865 5866 5866 5866 5866 5866 5866 5865 5865 5865 5864 5864 5863 5863 5862 5862 5861 5860 5859 5858 5857 5856 5856 5855 5854 5854 5853 5853 5852 5851 5850 5849 5848 5847 5847 5846 5846 5845 5845 5845 5844 5844 5843 5843 5842 5842 5842 5841 5841 5841 5840 5840 5839 5839 5838 5838 5837 5837 5836 5836 5836 5835 5834 5834 5833 5833 5833 5833 5833 5833 5832 5832
5870 5870 5870 5869 5870 5869 5868 5867 5867 5866 5865 5865 5865 5865 5865 5866 5865 5865 5865 5865 5865 5865 5864 5864 5863 5863 5863 5862 5862 5861 5860 5859 5858 5857 5856 5855 5855 5854 5854 5853 5853 5852 5851 5850 5849 5848 5847 5846 5846 5845 5845 5845 5844 5844 5843 5843 5842 5842 5841 5841 5841 5840 5840 5840 5839 5839 5838 5838 5837 5837 5837 5836 5835 5836 5835 5834 5834 5833 5833 5833 5833 5833 5833 5832 5832
5869 5869 5869 5869 5869 5868 5867 5866 5866 5865 5864 5864 5864 5865 5865 5865 5865 5865 5865 5865 5865 5864 5864 5863 5863 5863 5862 5862 5862 5861 5860 5859 5858 5857 5856 5855 5855 5854 5853 5853 5852 5852 5851 5850 5849 5847 5847 5846 5845 5845 5844 5844 5844 5844 5843 5842 5842 5841 5841 5841 5840 5840 5840 5839 5839 5838 5838 5838 5837 5836 5836 5835 5835 5835 5835 5834 5834 5833 5833 5832 5832 5832 5832 5832 5831
5868 5868 5868 5868 5868 5867 5866 5866 5865 5864 5864 5864 5864 5864 5864 5864 5864 5864 5864 5864 5864 5863 5863 5862 5862 5862 5862 5862 5861 5861 5860 5859 5858 5857 5856 5855 5855 5854 5853 5852 5852 5851 5850 5849 5848 5847 5846 5845 5844 5844 5844 5843 5843 5843 5843 5842 5841 5841 5840 5840 5840 5840 5839 5839 5838 5838 5838 5837 5837 5836 5836 5835 5835 5835 5835 5834 5834 5833 5833 5832 5832 5832 5832 5831 5831
5867 5866 5867 5867 5866 5866 5865 5865 5864 5864 5864 5864 5864 5864 5864 5864 5864 5863 5863 5863 5863 5862 5862 5862 5862 5862 5862 5861 5861 5860 5859 5859 5858 5857 5856 5855 5854 5853 5852 5852 5851 5850 5850 5849 5848 5847 5846 5845 5844 5843 5843 5843 5842 5842 5842 5842 5841 5840 5840 5840 5839 5839 5839 5838 5838 5838 5837 5837 5837 5836 5836 5835 5834 5834 5834 5834 5834 5833 5833 5832 5832 5831 5831 5831 5831
5865 5865 5865 5865 5865 5865 5864 5864 5864 5864 5864 5864 5864 5863 5863 5863 5863 5863 5863 5862 5862 5861 5861 5862 5862 5861 5861 5860 5860 5860 5859 5858 5857 5857 5856 5855 5854 5853 5852 5851 5850 5850 5849 5849 5848 5847 5846 5844 5843 5843 5842 5842 5842 5841 5841 5841 5840 5840 5839 5839 5839 5839 5838 5838 5837 5837 5837 5837 5836 5836 5835 5835 5834 5834 5834 5834 5833 5833 5832 5832 5831 5831 5830 5830 5830
5864 5863 5863 5864 5864 5864 5863 5863 5863 5863 5863 5863 5863 5863 5863 5862 5862 5862 5862 5861 5861 5861 5861 5861 5861 5861 5860 5860 5860 5859 5859 5858 5857 5856 5856 5855 5854 5853 5852 5851 5850 5849 5848 5848 5847 5846 5845 5844 5843 5842 5842 5841 5841 5841 5840 5840 5840 5839 5839 5839 5838 5838 5838 5837 5837 5836 5836 5836 5836 5835 5835 5834 5834 5834 5834 5833 5833 5832 5832 5832 5831 5831 5830 5830 5829
5862 5862 5862 5863 5863 5863 5862 5862 5863 5863 5863 5862 5862 5862 5862 5862 5861 5861 5861 5860 5860 5860 5861 5861 5861 5860 5860 5859 5859 5859 5858 5857 5857 5856 5855 5854 5853 5852 5851 5851 5850 5849 5848 5847 5847 5846 5845 5844 5843 5842 5841 5841 5840 5840 5840 5839 5839 5839 5839 5838 5838 5837 5837 5837 5836 5836 5835 5835 5835 5835 5834 5834 5833 5833 5833 5833 5832 5832 5831 5831 5830 5830 5830 5829 5828
5860 5860 5861 5861 5862 5862 5861 5862 5862 5862 5862 5861 5862 5861 5861 5861 5860 5860 5860 5860 5860 5860 5860 5860 5860 5860 5859 5859 5858 5858 5857 5857 5856 5855 5855 5854 5853 5852 5851 5850 5849 5848 5848 5847 5846 5846 5845 5844 5843 5842 5841 5840 5840 5840 5839 5839 5839 5838 5838 5838 5837 5837 5836 5836 5836 5835 5835 5834 5834 5834 5833 5833 5833 5832 5832 5832 5831 5831 5831 5830 5830 5829 5829 5828 5828
5858 5858 5859 5860 5860 5861 5861 5861 5861 5861 5860 5860 5860 5860 5860 5859 5859 5859 5859 5859 5859 5860 5859 5859 5859 5859 5859 5858 5858 5857 5856 5856 5855 5855 5854 5853 5852 5851 5850 5850 5849 5848 5847 5846 5846 5845 5844 5844 5843 5842 5841 5840 5840 5839 5839 5838 5838 5838 5837 5837 5837 5836 5835 5835 5835 5835 5834 5834 5833 5833 5833 5832 5832 5831 5831 5831 5830 5830 5830 5829 5829 5828 5828 5827 5827
5857 5857 5858 5859 5859 5860 5860 5859 5859 5859 5859 5859 5859 5859 5859 5858 5858 5858 5858 5859 5859 5859 5859 5859 5858 5858 5858 5857 5857 5856 5856 5855 5854 5854 5853 5852 5851 5850 5849 5849 5848 5847 5847 5846 5845 5844 5844 5843 5842 5841 5840 5840 5839 5839 5838 5838 5837 5837 5837 5837 5836 5835 5835 5834 5834 5834 5833 5833 5833 5832 5832 5831 5831 5830 5830 5830 5830 5829 5829 5828 5828 5827 5827 5826 5826
5855 5856 5857 5857 5858 5858 5858 5858 5858 5858 5858 5858 5858 5858 5857 5857 5857 5858 5858 5858 5858 5858 5858 5858 5858 5857 5857 5857 5856 5855 5855 5854 5853 5852 5852 5851 5850 5849 5848 5848 5847 5847 5846 5845 5845 5844 5843 5842 5841 5841 5840 5839 5839 5838 5837 5837 5836 5836 5836 5836 5835 5835 5834 5834 5833 5833 5832 5832 5832 5832 5831 5831 5830 5830 5829 5829 5829 5828 5828 5828 5827 5827 5826 5826 5825
5854 5854 5855 5856 5857 5857 5857 5857 5857 5857 5857 5857 5857 5857 5856 5856 5857 5857 5857 5857 5857 5857 5857 5857 5857 5857 5856 5856 5855 5854 5854 5853 5852 5851 5851 5850 5849 5848 5847 5847 5846 5846 5845 5845 5844 5843 5842 5841 5841 5840 5839 5839 5838 5837 5836 5836 5835 5835 5835 5835 5835 5834 5833 5833 5832 5832 5832 5831 5831 5831 5831 5830 5830 5829 5829 5828 5828 5828 5827 5827 5826 5826 5826 5825 5824
5852 5853 5854 5855 5856 5856 5856 5856 5856 5856 5856 5856 5856 5856 5856 5856 5856 5856 5856 5856 5856 5856 5856 5856 5856 5856 5855 5855 5854 5853 5853 5852 5851 5851 5850 5849 5848 5847 5846 5846 5845 5845 5844 5844 5843 5842 5842 5841 5840 5839 5839 5838 5837 5837 5836 5835 5835 5834 5834 5834 5833 5833 5832 5832 5832 5831 5831 5830 5830 5830 5830 5830 5829 5829 5828 5828 5827 5827 5826 5826 5825 5825 5825 5824 5824
5851 5852 5853 5854 5854 5855 5855 5855 5855 5855 5855 5855 5855 5855 5855 5855 5856 5856 5856 5856 5856 5856 5855 5855 5855 5855 5855 5854 5853 5852 5852 5851 5850 5850 5849 5848 5847 5846 5845 5845 5844 5844 5843 5843 5842 5842 5841 5840 5839 5839 5838 5837 5837 5836 5835 5834 5834 5834 5833 5833 5832 5832 5831 5831 5831 5830 5830 5829 5829 5829 5829 5829 5829 5828 5828 5827 5827 5826 5826 5825 5824 5824 5824 5823 5823
5851 5852 5852 5853 5853 5853 5854 5854 5854 5854 5854 5854 5854 5854 5854 5855 5855 5855 5855 5855 5855 5855 5855 5854 5854 5854 5854 5853 5853 5852 5851 5850 5849 5849 5848 5847 5846 5845 5844 5844 5843 5842 5842 5841 5841 5841 5840 5839 5839 5838 5837 5836 5836 5835 5834 5834 5833 5833 5832 5831 5831 5831 5830 5829 5829 5829 5829 5829 5828 5828 5828 5828 5828 5828 5827 5827 5826 5826 5825 5825 5824 5823 5823 5823 5822
5850 5850 5851 5851 5852 5852 5852 5852 5853 5853 5853 5853 5853 5853 5854 5854 5854 5854 5854 5854 5854 5854 5854 5854 5853 5853 5853 5852 5852 5851 5850 5850 5849 5848 5847 5846 5845 5844 5843 5843 5842 5841 5841 5840 5840 5839 5839 5838 5837 5837 5836 5835 5835 5834 5833 5833 5832 5831 5831 5830 5830 5829 5828 5828 5828 5828 5828 5828 5827 5827 5827 5827 5827 5827 5826 5826 5825 5825 5825 5824 5824 5823 5822 5822 5822
5848 5849 5850 5850 5850 5851 5851 5851 5851 5851 5852 5852 5852 5852 5852 5853 5853 5853 5853 5853 5853 5853 5853 5853 5853 5852 5852 5852 5851 5850 5850 5850 5849 5848 5846 5845 5844 5843 5843 5842 5841 5840 5839 5839 5838 5838 5837 5836 5836 5835 5835 5834 5834 5833 5833 5832 5831 5830 5829 5828 5828 5828 5827 5827 5826 5826 5826 5827 5827 5826 5826 5826 5826 5825 5825 5825 5825 5824 5824 5824 5823 5823 5822 5821 5821
5847 5848 5848 5848 5849 5849 5849 5850 5850 5850 5851 5851 5851 5851 5851 5852 5852 5852 5852 5852 5852 5852 5852 5852 5852 5852 5851 5851 5850 5850 5850 5849 5849 5848 5846 5845 5843 5842 5841 5841 5840 5839 5838 5837 5837 5836 5835 5835 5834 5834 5833 5833 5833 5832 5832 5831 5830 5828 5828 5827 5827 5827 5826 5826 5825 5825 5825 5825 5825 5825 5825 5825 5824 5824 5824 5824 5824 5823 5823 5823 5823 5822 5822 5821 5820
5846 5846 5847 5847 5848 5848 5848 5848 5849 5849 5850 5850 5850 5850 5850 5851 5851 5851 5851 5851 5851 5851 5851 5851 5851 5851 5851 5850 5850 5850 5849 5848 5848 5847 5846 5844 5843 5841 5840 5840 5839 5838 5837 5836 5835 5835 5834 5833 5833 5832 5832 5831 5831 5831 5831 5830 5829 5828 5826 5826 5825 5825 5825 5824 5824 5824 5823 5823 5824 5824 5824 5823 5823 5823 5823 5823 5823 5822 5822 5822 5822 5821 5821 5820 5819
5845 5845 5846 5846 5846 5847 5847 5847 5848 5848 5849 5849 5849 5849 5850 5850 5850 5850 5850 5850 5850 5850 5850 5850 5850 5850 5850 5850 5849 5849 5848 5847 5846 5846 5845 5844 5843 5841 5840 5839 5838 5836 5835 5834 5834 5833 5833 5832 5832 5831 5830 5829 5829 5829 5829 5829 5828 5827 5826 5825 5824 5823 5823 5823 5822 5822 5822 5822 5822 5822 5822 5822 5822 5821 5821 5821 5821 5821 5821 5821 5821 5821 5820 5819 5819
5843 5844 5845 5845 5845 5846 5846 5846 5847 5847 5848 5848 5848 5849 5849 5849 5849 5849 5849 5849 5849 5849 5849 5849 5849 5849 5849 5848 5848 5847 5847 5846 5845 5844 5844 5843 5842 5841 5839 5838 5836 5835 5834 5833 5832 5832 5831 5831 5830 5830 5829 5828 5828 5827 5827 5827 5827 5826 5825 5824 5823 5822 5822 5822 5821 5821 5821 5821 5821 5821 5821 5821 5820 5820 5820 5820 5820 5820 5820 5820 5820 5820 5819 5819 5818
5842 5843 5844 5844 5844 5844 5845 5845 5846 5846 5846 5847 5847 5847 5848 5848 5848 5848 5848 5848 5848 5848 5848 5848 5848 5848 5848 5847 5847 5846 5845 5844 5843 5843 5842 5842 5841 5840 5838 5837 5835 5834 5832 5831 5830 5830 5829 5829 5829 5829 5828 5827 5826 5826 5825 5825 5825 5825 5824 5822 5822 5821 5821 5820 5819 5819 5819 5819 5819 5820 5820 5820 5819 5819 5818 5818 5818 5819 5818 5818 5819 5819 5819 5818 5818
5841 5841 5842 5842 5842 5842 5843 5843 5844 5844 5845 5845 5846 5846 5846 5847 5846 5846 5846 5847 5847 5847 5847 5847 5847 5847 5846 5846 5845 5844 5843 5843 5842 5841 5840 5840 5839 5839 5837 5836 5834 5833 5831 5830 5829 5828 5828 5828 5828 5827 5826 5825 5825 5824 5823 5823 5823 5823 5823 5822 5820 5820 5819 5819 5818 5817 5817 5817 5818 5818 5818 5818 5818 5817 5817 5817 5817 5817 5817 5817 5817 5818 5818 5817 5817
5839 5840 5840 5840 5840 5840 5841 5841 5842 5842 5843 5844 5844 5844 5845 5845 5845 5845 5845 5845 5845 5846 5846 5846 5846 5846 5845 5844 5843 5843 5842 5841 5840 5839 5839 5838 5838 5837 5836 5835 5833 5832 5830 5829 5827 5827 5827 5827 5826 5825 5825 5824 5823 5822 5821 5821 5820 5821 5821 5821 5819 5818 5818 5818 5817 5816 5815 5815 5816 5816 5816 5816 5816 5816 5816 5816 5816 5816 5816 5816 5816 5816 5816 5816 5816
5837 5838 5838 5838 5838 5838 5839 5839 5840 5841 5841 5842 5842 5842 5842 5843 5843 5843 5844 5844 5844 5845 5845 5845 5845 5844 5843 5843 5842 5842 5841 5840 5839 5838 5837 5837 5836 5835 5834 5833 5832 5831 5829 5827 5826 5825 5826 5826 5825 5823 5823 5822 5821 5820 5819 5818 5818 5818 5818 5818 5818 5817 5816 5816 5815 5814 5813 5813 5813 5814 5814 5815 5815 5815 5815 5814 5815 5815 5815 5815 5815 5815 5815 5815 5815
5835 5836 5836 5837 5837 5837 5837 5838 5839 5839 5840 5840 5840 5840 5840 5841 5842 5842 5842 5843 5844 5844 5844 5844 5843 5843 5842 5842 5841 5841 5840 5839 5838 5837 5836 5835 5834 5833 5832 5831 5830 5829 5828 5826 5825 5824 5824 5824 5823 5822 5821 5820 5819 5818 5817 5816 5816 5816 5815 5815 5815 5815 5814 5814 5813 5812 5811 5811 5812 5812 5812 5813 5813 5813 5813 5813 5813 5813 5813 5813 5813 5813 5813 5813 5813
5833 5834 5835 5835 5835 5835 5836 5837 5837 5837 5838 5838 5838 5839 5839 5840 5840 5841 5842 5842 5843 5843 5842 5842 5842 5841 5841 5841 5840 5839 5838 5838 5837 5836 5836 5834 5833 5832 5830 5829 5828 5827 5826 5825 5824 5823 5822 5822 5820 5820 5819 5818 5817 5816 5815 5814 5814 5814 5813 5812 5812 5811 5811 5811 5811 5810 5809 5809 5809 5810 5810 5811 5811 5811 5811 5811 5811 5811 5811 5812 5811 5811 5811 5811 5812
5832 5832 5833 5833 5834 5834 5834 5835 5835 5836 5836 5837 5837 5838 5838 5839 5839 5840 5841 5841 5841 5841 5841 5841 5840 5840 5839 5839 5839 5838 5837 5836 5836 5835 5834 5834 5832 5831 5829 5827 5826 5824 5823 5822 5822 5821 5821 5819 5818 5818 5817 5816 5815 5813 5812 5812 5812 5812 5811 5810 5809 5808 5808 5808 5809 5808 5807 5807 5807 5808 5808 5808 5808 5809 5809 5809 5810 5810 5810 5810 5810 5810 5810 5810 5810
5830 5831 5831 5832 5832 5832 5832 5833 5834 5834 5835 5836 5837 5837 5837 5838 5839 5839 5840 5840 5840 5840 5839 5839 5839 5838 5838 5837 5837 5836 5836 5835 5835 5834 5833 5832 5831 5830 5828 5826 5825 5823 5821 5820 5819 5819 5819 5818 5817 5816 5815 5814 5813 5812 5810 5809 5809 5809 5809 5808 5807 5806 5805 5805 5806 5805 5805 5805 5805 5805 5805 5805 5806 5806 5807 5807 5807 5808 5808 5808 5808 5808 5808 5809 5809
5829 5829 5830 5830 5830 5830 5831 5831 5832 5833 5834 5834 5835 5836 5836 5837 5837 5838 5838 5838 5838 5838 5838 5838 5838 5837 5836 5836 5835 5834 5834 5834 5833 5832 5832 5831 5830 5829 5827 5825 5824 5822 5821 5819 5818 5817 5816 5815 5814 5813 5812 5812 5811 5810 5808 5807 5806 5806 5807 5806 5805 5804 5804 5803 5803 5803 5802 5802 5802 5802 5803 5803 5803 5804 5804 5804 5805 5806 5806 5807 5807 5807 5807 5807 5807
5827 5828 5828 5828 5828 5829 5829 5829 5830 5831 5832 5833 5833 5834 5835 5836 5836 5836 5837 5837 5836 5836 5836 5836 5836 5835 5835 5834 5834 5833 5832 5832 5831 5831 5830 5829 5828 5827 5826 5824 5823 5821 5820 5818 5817 5815 5814 5813 5812 5811 5810 5808 5808 5807 5806 5804 5803 5803 5803 5803 5803 5802 5802 5801 5800 5800 5799 5799 5799 5799 5800 5800 5801 5801 5802 5802 5802 5803 5804 5805 5805 5805 5805 5805 5805
5826 5826 5826 5826 5827 5827 5827 5828 5829 5830 5831 5831 5832 5833 5834 5834 5835 5835 5835 5835 5835 5835 5834 5834 5834 5833 5833 5833 5832 5832 5831 5830 5829 5829 5828 5828 5827 5826 5824 5823 5822 5820 5819 5817 5815 5814 5812 5811 5809 5808 5807 5806 5805 5804 5803 5801 5801 5800 5799 5799 5799 5799 5799 5799 5798 5798 5797 5796 5796 5796 5797 5797 5798 5799 5800 5800 5800 5801 5802 5802 5803 5803 5804 5804 5804
5824 5824 5824 5825 5825 5825 5825 5826 5827 5828 5829 5830 5831 5832 5833 5833 5833 5833 5834 5834 5834 5833 5833 5832 5831 5831 5831 5831 5831 5830 5829 5828 5827 5827 5827 5826 5825 5824 5822 5821 5820 5819 5817 5815 5814 5812 5810 5809 5807 5806 5804 5803 5802 5801 5800 5798 5798 5797 5796 5795 5795 5795 5795 5796 5796 5795 5794 5793 5793 5793 5794 5795 5796 5797 5797 5798 5798 5798 5799 5800 5801 5801 5802 5802 5802
5822 5823 5823 5823 5823 5823 5824 5824 5825 5826 5828 5829 5830 5831 5832 5832 5832 5832 5832 5832 5832 5832 5831 5830 5830 5830 5830 5829 5829 5828 5827 5826 5826 5825 5825 5824 5823 5822 5820 5819 5818 5817 5815 5814 5812 5810 5808 5806 5805 5804 5802 5800 5799 5798 5796 5795 5794 5794 5793 5791 5791 5791 5791 5792 5792 5792 5791 5790 5790 5790 5791 5792 5793 5793 5794 5795 5796 5796 5796 5798 5798 5799 5800 5800 5800
5821 5821 5821 5821 5821 5822 5822 5823 5823 5825 5827 5828 5829 5830 5830 5831 5831 5831 5831 5831 5831 5831 5830 5829 5828 5828 5828 5827 5827 5826 5825 5825 5824 5823 5823 5822 5821 5820 5818 5817 5816 5815 5813 5811 5809 5807 5805 5803 5802 5800 5799 5798 5796 5795 5793 5791 5790 5790 5789 5789 5788 5787 5787 5788 5789 5789 5787 5787 5787 5787 5788 5789 5790 5790 5790 5792 5793 5793 5794 5795 5796 5797 5797 5797 5798
5819 5819 5819 5819 5820 5820 5821 5821 5822 5824 5826 5827 5828 5829 5829 5830 5830 5830 5830 5830 5829 5829 5828 5828 5827 5827 5826 5826 5825 5824 5823 5823 5822 5821 5820 5820 5818 5817 5816 5815 5813 5812 5810 5808 5807 5805 5802 5800 5798 5797 5795 5794 5793 5792 5790 5788 5787 5786 5785 5785 5785 5784 5783 5784 5785 5784 5783 5783 5784 5784 5785 5785 5786 5786 5786 5789 5790 5791 5791 5792 5793 5794 5795 5795 5795
5817 5817 5818 5818 5818 5819 5819 5820 5821 5823 5824 5826 5827 5827 5828 5828 5829 5829 5829 5828 5828 5828 5827 5826 5825 5825 5825 5824 5823 5822 5821 5821 5820 5819 5818 5817 5816 5815 5814 5812 5811 5809 5808 5806 5804 5802 5799 5797 5795 5793 5791 5790 5789 5788 5786 5784 5783 5781 5780 5780 5781 5780 5780 5780 5780 5779 5780 5781 5781 5781 5781 5781 5782 5782 5783 5786 5788 5787 5788 5790 5791 5792 5792 5793 5793
5815 5816 5816 5816 5817 5817 5818 5819 5821 5822 5823 5824 5825 5826 5827 5827 5828 5828 5827 5827 5827 5827 5826 5825 5824 5823 5823 5823 5822 5821 5820 5819 5818 5817 5816 5815 5814 5813 5811 5809 5808 5806 5805 5803 5801 5799 5796 5794 5791 5789 5787 5786 5784 5783 5781 5780 5778 5776 5776 5776 5776 5776 5777 5776 5775 5775 5776 5777 5777 5777 5777 5778 5778 5778 5780 5782 5783 5784 5785 5787 5788 5789 5790 5790 5791
5813 5814 5814 5815 5816 5816 5817 5818 5820 5821 5822 5823 5824 5825 5826 5826 5826 5826 5826 5826 5825 5825 5824 5824 5823 5822 5821 5821 5820 5819 5818 5817 5816 5815 5814 5812 5811 5810 5808 5807 5805 5803 5802 5800 5798 5795 5793 5790 5788 5785 5783 5781 5778 5777 5776 5774 5772 5771 5771 5771 5771 5772 5773 5772 5771 5772 5772 5772 5773 5773 5773 5773 5774 5774 5776 5778 5779 5780 5782 5783 5785 5786 5787 5788 5788
5811 5812 5813 5814 5815 5815 5816 5817 5818 5820 5821 5822 5823 5823 5824 5824 5825 5824 5824 5824 5824 5824 5823 5822 5822 5821 5820 5819 5818 5818 5816 5815 5814 5812 5811 5810 5809 5807 5806 5804 5802 5801 5799 5797 5795 5792 5789 5787 5784 5781 5778 5775 5772 5770 5769 5768 5767 5766 5766 5766 5766 5767 5768 5767 5767 5768 5768 5768 5769 5770 5769 5770 5770 5770 5772 5773 5774 5777 5778 5780 5782 5783 5784 5785 5786
5810 5811 5812 5813 5814 5814 5815 5816 5817 5819 5820 5821 5821 5822 5822 5823 5823 5823 5823 5823 5822 5822 5822 5821 5820 5819 5818 5817 5816 5815 5814 5813 5812 5811 5810 5808 5807 5805 5804 5802 5800 5798 5796 5794 5792 5789 5786 5784 5780 5777 5773 5770 5767 5764 5763 5762 5760 5761 5761 5760 5761 5762 5763 5763 5763 5763 5764 5764 5765 5765 5766 5766 5766 5766 5768 5769 5770 5772 5774 5776 5778 5779 5781 5782 5783
5808 5809 5811 5812 5813 5814 5815 5815 5816 5817 5818 5819 5819 5820 5821 5822 5822 5822 5821 5821 5820 5820 5819 5819 5818 5817 5816 5815 5814 5813 5812 5811 5810 5809 5808 5807 5805 5804 5802 5801 5798 5796 5794 5792 5789 5786 5783 5780 5776 5772 5768 5765 5762 5758 5757 5756 5754 5754 5755 5755 5756 5757 5758 5758 5758 5758 5759 5760 5761 5761 5762 5762 5762 5762 5763 5765 5766 5767 5770 5772 5774 5775 5777 5779 5780
5807 5808 5809 5811 5812 5812 5813 5814 5815 5816 5817 5817 5818 5819 5820 5821 5820 5820 5820 5819 5819 5818 5817 5816 5816 5815 5814 5813 5812 5811 5810 5809 5809 5808 5807 5805 5804 5802 5801 5798 5796 5794 5792 5789 5787 5784 5780 5777 5772 5768 5764 5760 5757 5754 5752 5750 5749 5748 5749 5750 5751 5753 5754 5754 5754 5754 5754 5755 5756 5758 5758 5759 5759 5759 5759 5760 5762 5763 5765 5768 5770 5771 5773 5775 5776
5806 5807 5808 5809 5810 5811 5812 5813 5814 5815 5816 5816 5817 5818 5819 5819 5819 5818 5818 5817 5816 5815 5814 5813 5813 5813 5812 5811 5810 5809 5808 5807 5807 5806 5805 5803 5802 5800 5798 5796 5794 5792 5790 5787 5784 5780 5777 5773 5768 5764 5760 5756 5753 5750 5747 5745 5744 5743 5743 5744 5746 5748 5749 5749 5750 5750 5750 5751 5752 5754 5755 5754 5754 5755 5755 5756 5758 5759 5760 5763 5765 5767 5770 5772 5773
5804 5805 5807 5808 5809 5810 5811 5812 5812 5813 5814 5815 5815 5816 5817 5817 5816 5816 5815 5815 5814 5813 5812 5811 5811 5811 5810 5809 5808 5808 5807 5806 5805 5804 5802 5801 5800 5798 5796 5794 5792 5790 5787 5784 5781 5777 5773 5769 5764 5760 5756 5753 5750 5746 5743 5740 5738 5737 5738 5739 5740 5743 5744 5746 5746 5747 5747 5748 5749 5750 5751 5751 5751 5751 5751 5752 5753 5755 5756 5759 5762 5764 5766 5768 5769